Tracking 31027 objects as of 19-Jul-2025
HD Live streaming from Space Station
objects crossing your sky now

BRAZILSAT 1

Track BRAZILSAT 1 now!
BRAZILSAT 1 is classified as:


NORAD ID: 15561
Int'l Code: 1985-015B
Perigee: 35,990.1 km
Apogee: 36,003.5 km
Inclination: 14.3 °
Period: 1,446.5 minutes
Semi major axis: 42367 km
RCS: 2.7147 m2 (large)
Launch date: February 8, 1985
Source: Brazil (BRAZ)
Launch site: FRENCH GUIANA (FRGUI)
Your satellite tracking list
Your tracking list is empty




NASA's NSSDC Master Catalog

Two Line Element Set (TLE):
1 15561U 85015B   25199.26336957 -.00000287  00000-0  00000-0 0  9992
2 15561  14.3026 347.3569 0001579 323.1338  40.9962  0.99551764 43023
Source of the keplerian elements: AFSPC